Overview Statistics Trail Chart Weather Telemetry Raw packets
 

This is the latest recevied weather packets stored in our database for station/object W8RSN-13. If no packets are shown the sender has not sent any weather packets the latest 10 day(s).

<< 28 29 30 31 32 33 34 >>
Time Temp. Humidity Pressure Rain* Wind** Luminosity Snow
1788488063 23.89° C 55% 1013 hPa - - - -
1788487762 23.89° C 55% 1013.1 hPa - - - -
1788487462 23.89° C 55% 1012.9 hPa - - - -
1788487161 23.89° C 54% 1012.9 hPa - - - -
1788486860 24.44° C 54% 1012.7 hPa - - - -
1788486559 25° C 53% 1012.8 hPa - - - -
1788486258 25.56° C 51% 1012.8 hPa - - - -
1788485957 25.56° C 52% 1012.8 hPa - - - -
1788485656 25° C 52% 1012.8 hPa - - - -
1788485376 25.56° C 51% 1012.8 hPa - - - -
1788485075 25.56° C 51% 1012.6 hPa - - - -
1788484774 26.11° C 49% 1012.8 hPa - - - -
1788484473 26.67° C 48% 1012.8 hPa - - - -
1788484172 26.67° C 47% 1012.8 hPa - - - -
1788483871 26.67° C 47% 1012.6 hPa - - - -
1788483570 26.67° C 47% 1012.6 hPa - - - -
1788483269 27.22° C 47% 1012.6 hPa - - - -
1788482968 27.22° C 46% 1012.7 hPa - - - -
1788482675 27.22° C 47% 1012.5 hPa - - - -
1788482367 27.22° C 47% 1012.5 hPa - - - -
1788482066 27.22° C 47% 1012.6 hPa - - - -
1788481765 27.22° C 47% 1012.6 hPa - - - -
1788481464 27.78° C 46% 1012.6 hPa - - - -
1788481163 27.78° C 46% 1012.6 hPa - - - -
1788480862 27.78° C 46% 1012.7 hPa - - - -

* Rain since midnight (hover to see other rain measurements)
** Current wind speed in m/s (hover to see current wind gust speed)